[[{"header":{"parameterUnit":"m.s-1","parameterCategory":1,"la1":30.2991,"la2":30.254,"lo1":-89.0895,"lo2":-89.0444,"dy":0.0017,"dx":0.0017,"nx":28,"ny":28,"refTime":"2024-08-02T09:00:00:Z","depth":0,"parameterNumber":2,"parameterNumberName":"U-component_of_WINDS"},"data":[0,0,0,0,0,0,0,0,0,0,0,0,0,0,0,0,0,0,0,0,0,0,0,0,0,0,0,0,0,0,0,0,0,0,0,0,0,0,0,0,0,0,0,0,0,0,0,0,0,0,0,0,0,0,0,0,0,0,1.8333,1.8334,0,1.8406,1.8407,1.8408,1.8382,1.838,1.8379,1.8377,1.8454,1.8458,1.8461,0,0,0,0,0,0,0,0,0,0,0,0,0,1.8172,1.8175,1.8333,1.8334,1.8335,1.8406,1.8407,1.8408,1.8382,1.838,1.8378,1.8376,1.8453,1.8457,1.8462,0,0,0,0,0,0,0,0,0,0,0,0,0,1.8243,1.8176,1.8333,1.8331,1.8331,1.8406,1.8407,1.8408,1.8383,1.838,1.8378,1.8375,1.8452,1.8457,1.8462,1.8544,0,0,1.8479,1.8481,0,0,0,0,0,0,0,0,1.8239,1.8249,1.833,1.8331,1.8332,1.8382,1.8379,1.8454,1.8383,1.8363,1.8377,1.8374,1.8432,1.8439,1.8458,1.8548,1.8551,1.8479,1.8482,1.8485,1.8486,0,0,0,0,0,0,0,1.8235,1.8246,1.8362,1.8331,1.8332,1.8326,1.8334,1.8393,1.8411,1.8365,1.8363,1.8372,1.8432,1.8453,1.846,1.8552,1.8479,1.8484,1.8487,1.8489,1.8711,1.8713,0,0,0,0,0,0,1.8229,1.8242,1.836,1.8364,1.8278,1.8331,1.8339,1.8369,1.841,1.8414,1.8374,1.837,1.8445,1.8454,1.8463,1.856,1.8485,1.849,1.8493,1.8708,1.8711,1.8714,0,0,0,0,0,0,1.8226,1.824,1.8357,1.8303,1.8317,1.8336,1.837,1.8371,1.8392,1.8417,1.842,1.8392,1.8444,1.8455,1.8523,1.8562,1.8492,1.8497,1.8705,1.8709,1.8713,1.8755,0,0,0,0,0,0,1.8221,1.8239,1.827,1.8304,1.832,1.8416,1.8372,1.8375,1.8401,1.8397,1.8435,1.8438,1.8443,1.8516,1.8529,1.8568,1.8501,1.8701,1.8707,1.8711,1.8751,1.876,1.8769,0,0,0,0,0,1.8216,1.828,1.8272,1.8286,1.836,1.8419,1.8428,1.8431,1.8404,1.8436,1.8451,1.8437,1.8556,1.8523,1.8538,1.8579,1.8699,1.8705,1.8711,1.8746,1.8758,1.8768,0,0,0,0,0,0,1.8252,1.8285,1.8276,1.8353,1.8383,1.8414,1.8454,1.8444,1.8483,1.8478,1.848,1.8489,1.8559,1.8576,1.8539,1.8659,1.8623,1.8633,1.8645,1.8657,1.8666,1.866,1.8506,0,0,0,0,0,1.8269,1.8314,1.834,1.8406,1.8421,1.8435,1.8461,1.846,1.8492,1.8505,1.8525,1.8557,1.8601,1.863,1.8673,1.8753,1.876,1.8789,1.8798,1.8805,1.8813,1.8854,1.8867,1.8734,1.8734,1.8734,0,0,1.8305,1.8328,1.8356,1.8414,1.8437,1.8483,1.8446,1.8497,1.8531,1.8513,1.8577,1.8594,1.8629,1.8704,1.8737,1.872,1.8851,1.8813,1.8818,1.8822,1.8862,1.8874,1.8886,1.8738,1.8737,1.8736,0,0,1.8393,1.8416,1.8472,1.8495,1.853,1.8538,1.8552,1.8584,1.8594,1.8659,1.8645,1.8686,1.8763,1.8788,1.8811,1.8906,1.8894,1.892,1.8967,1.9008,1.9018,1.9027,1.9059,1.9071,1.8928,1.8928,1.8928,0,1.8433,1.8501,1.8502,1.8553,1.8578,1.8562,1.8619,1.8642,1.8689,1.8707,1.8687,1.8781,1.8804,1.8882,1.8905,1.8925,1.894,1.8915,1.9016,1.9026,1.9034,1.9065,1.9077,1.8931,1.893,1.893,1.893,0,1.8547,1.8595,1.8636,1.868,1.871,1.8764,1.8773,1.8803,1.88,1.881,1.8876,1.8903,1.8949,1.8968,1.8966,1.9046,1.9034,1.9015,1.8979,1.905,1.9078,1.909,1.8935,1.8934,1.8933,1.8932,0,0,1.8661,1.8703,1.8718,1.8737,1.8774,1.8811,1.8863,1.8907,1.8932,1.8965,1.9009,1.9073,1.9055,1.9081,1.9082,1.9118,1.9189,1.9094,1.9095,1.9109,1.9276,1.9289,1.9302,1.9181,1.9184,1.9185,1.9273,0,1.875,1.8841,1.8842,1.8926,1.8969,1.8954,1.9,1.9027,1.9038,1.9076,1.9089,1.9133,1.9108,1.9123,1.9158,1.9173,1.9222,1.9167,1.9221,1.9223,1.9211,1.9318,1.9332,1.9413,1.9284,1.9286,1.9288,0,1.8866,1.8901,1.8988,1.9016,1.9035,1.9075,1.9115,1.9152,1.9182,1.9188,1.9215,1.921,1.9263,1.9226,1.9299,1.9261,1.9283,1.9294,1.9297,1.9301,1.9258,1.9323,1.9439,1.945,1.9306,1.9304,1.9303,0,1.8937,1.9006,1.9066,1.9084,1.9119,1.9147,1.9164,1.9192,1.9217,1.9252,1.9268,1.931,1.9332,1.9364,1.9369,1.9342,1.9441,1.9405,1.9447,1.9446,1.9467,1.9466,1.9586,1.9485,1.9485,1.9484,1.9484,0,1.9036,1.9089,1.9098,1.9136,1.9195,1.9196,1.9255,1.9269,1.9294,1.9333,1.9324,1.9361,1.9367,1.9406,1.9411,1.9469,1.948,1.9485,1.9485,1.9485,1.9484,1.9498,1.9492,1.9488,1.9487,1.9486,1.9486,0,1.9124,1.9133,1.9198,1.9225,1.9233,1.9275,1.9299,1.9334,1.9344,1.9394,1.9405,1.9421,1.9465,1.9474,1.9528,1.9531,1.96,1.9596,1.9589,1.9588,1.9628,1.9624,1.9761,1.9779,1.9667,1.9669,1.9669,0,1.9186,1.9226,1.9257,1.9282,1.9299,1.934,1.9366,1.9369,1.9396,1.9432,1.9463,1.9507,1.9541,1.9613,1.9629,1.967,1.9665,1.9711,1.9671,1.9669,1.9664,1.966,1.9664,1.9718,1.9719,1.972,1.9721,0,1.9293,1.9295,1.9331,1.9369,1.94,1.943,1.9459,1.948,1.9487,1.9518,1.9562,1.9589,1.9642,1.9685,1.9725,1.9742,1.9732,1.9733,1.9745,1.9744,1.9737,1.9739,1.9608,1.973,1.9729,1.9728,1.9728,1.9728,1.9369,1.9403,1.943,1.947,1.9492,1.9518,1.9552,1.9565,1.9602,1.9645,1.9645,1.9694,1.9722,1.9774,1.9793,1.9831,1.9817,1.9834,1.9838,1.9842,1.9844,1.9732,1.9839,1.9839,1.9838,1.9838,1.9838,0,1.9474,1.949,1.9527,1.9566,1.9598,1.9586,1.9616,1.9644,1.9686,1.9713,1.9746,1.9797,1.9838,1.9857,1.9897,1.9924,1.992,1.9934,1.9931,1.9935,1.9856,1.9841,1.9936,1.9936,1.9936,1.9936,1.9936,1.9936,1.9532,1.9588,1.9593,1.966,1.9676,1.9722,1.9741,1.9765,1.9786,1.9842,1.9875,1.9887,1.991,1.9952,1.9989,1.9993,2.0008,2.0023,2.0026,1.9951,1.9941,1.9931,1.9917,2.0027,2.0027,2.0101,2.0102,2.0102]},{"header":{"parameterUnit":"m.s-1","parameterCategory":1,"la1":30.2991,"la2":30.254,"lo1":-89.0895,"lo2":-89.0444,"dy":0.0017,"dx":0.0017,"nx":28,"ny":28,"refTime":"2024-08-02T09:00:00:Z","depth":0,"parameterNumber":3,"parameterNumberName":"V-component_of_WINDS"},"data":[0,0,0,0,0,0,0,0,0,0,0,0,0,0,0,0,0,0,0,0,0,0,0,0,0,0,0,0,0,0,0,0,0,0,0,0,0,0,0,0,0,0,0,0,0,0,0,0,0,0,0,0,0,0,0,0,0,0,2.7651,2.7651,0,2.7705,2.7706,2.7707,2.7678,2.7677,2.7675,2.7674,2.7726,2.7729,2.7731,0,0,0,0,0,0,0,0,0,0,0,0,0,2.7516,2.7519,2.7651,2.7651,2.7652,2.7705,2.7706,2.7707,2.7678,2.7677,2.7675,2.7673,2.7725,2.7728,2.7732,0,0,0,0,0,0,0,0,0,0,0,0,0,2.7573,2.7519,2.765,2.7644,2.7644,2.7705,2.7706,2.7707,2.7679,2.7676,2.7674,2.7672,2.7724,2.7728,2.7732,2.7801,0,0,2.7745,2.7746,0,0,0,0,0,0,0,0,2.757,2.7578,2.7644,2.7645,2.7645,2.7683,2.7678,2.7738,2.7679,2.7665,2.7674,2.7671,2.7713,2.7718,2.7733,2.7803,2.7806,2.7745,2.7747,2.7749,2.775,0,0,0,0,0,0,0,2.7566,2.7575,2.7672,2.7645,2.7646,2.7637,2.7643,2.7689,2.7701,2.7667,2.7665,2.7672,2.7713,2.7729,2.7734,2.7806,2.7745,2.7749,2.7751,2.7753,2.7934,2.7936,0,0,0,0,0,0,2.7563,2.7572,2.767,2.7674,2.7601,2.7641,2.7648,2.7673,2.77,2.7702,2.7673,2.767,2.7723,2.7729,2.7736,2.7817,2.7749,2.7753,2.7755,2.7932,2.7934,2.7937,0,0,0,0,0,0,2.756,2.7572,2.7668,2.7623,2.7634,2.7646,2.7674,2.7675,2.7691,2.7705,2.7707,2.7688,2.7722,2.773,2.7785,2.7818,2.7755,2.7759,2.7929,2.7932,2.7936,2.7981,0,0,0,0,0,0,2.7556,2.7571,2.7599,2.7623,2.7637,2.7718,2.7676,2.7678,2.7699,2.7695,2.772,2.7722,2.772,2.7779,2.7789,2.7823,2.7762,2.7926,2.793,2.7935,2.7976,2.7985,2.7993,0,0,0,0,0,2.7552,2.7609,2.76,2.7612,2.7672,2.772,2.7728,2.7726,2.7702,2.7729,2.7737,2.7721,2.7813,2.7785,2.7796,2.7831,2.7924,2.7929,2.7934,2.7972,2.7984,2.7993,0,0,0,0,0,0,2.7587,2.7612,2.7603,2.767,2.7693,2.7715,2.7749,2.7738,2.7768,2.7763,2.7758,2.7764,2.7821,2.7832,2.78,2.7898,2.7864,2.7872,2.789,2.79,2.7908,2.7904,2.7765,0,0,0,0,0,2.7602,2.7641,2.7661,2.7718,2.773,2.7738,2.7759,2.7756,2.7779,2.7788,2.7801,2.7823,2.7857,2.7879,2.7911,2.7978,2.7981,2.8007,2.8016,2.8023,2.8029,2.8063,2.8074,2.7954,2.7954,2.7954,0,0,2.7635,2.7654,2.7678,2.7725,2.7743,2.7781,2.7746,2.7789,2.7816,2.7794,2.7847,2.7857,2.7881,2.7942,2.7969,2.7952,2.8063,2.8029,2.8035,2.8038,2.807,2.8081,2.8091,2.7958,2.7957,2.7957,0,0,2.7714,2.7733,2.7782,2.78,2.7827,2.7832,2.7844,2.7867,2.7873,2.7927,2.791,2.7942,2.8001,2.8018,2.8035,2.8119,2.8104,2.8129,2.8173,2.8206,2.8215,2.8224,2.8252,2.8263,2.8136,2.8136,2.8136,0,2.775,2.7809,2.7808,2.7852,2.7872,2.7854,2.7903,2.792,2.7956,2.797,2.7951,2.8023,2.8038,2.8102,2.8122,2.8136,2.8148,2.8126,2.8214,2.8223,2.823,2.8258,2.8268,2.8138,2.8138,2.8138,2.8138,0,2.7852,2.7893,2.7929,2.7965,2.7989,2.8035,2.8039,2.8063,2.8058,2.8064,2.8116,2.8134,2.8168,2.8183,2.8178,2.8246,2.8234,2.8215,2.8181,2.8245,2.827,2.828,2.8143,2.8141,2.8141,2.814,0,0,2.7955,2.7989,2.8002,2.8018,2.8046,2.8077,2.8121,2.8155,2.8176,2.8201,2.8236,2.8285,2.8268,2.8286,2.8282,2.8312,2.8375,2.8289,2.8289,2.8303,2.8449,2.8462,2.8475,2.8366,2.8368,2.8369,2.8446,0,2.8035,2.8114,2.8113,2.8185,2.8221,2.8204,2.8242,2.8263,2.8269,2.8299,2.8306,2.834,2.8315,2.8326,2.8354,2.8362,2.8404,2.8356,2.8397,2.8398,2.8391,2.8488,2.8503,2.8575,2.8456,2.8458,2.8459,0,2.8139,2.8168,2.8244,2.8265,2.8281,2.8315,2.8346,2.8376,2.8398,2.84,2.842,2.8412,2.8454,2.8419,2.8476,2.8444,2.846,2.8466,2.8469,2.8472,2.8432,2.8493,2.8598,2.8608,2.8475,2.8474,2.8473,0,2.8205,2.8263,2.8315,2.8329,2.8356,2.838,2.8392,2.8412,2.8432,2.8459,2.8471,2.8502,2.8518,2.8541,2.854,2.8515,2.8598,2.8563,2.86,2.86,2.8617,2.8616,2.8726,2.863,2.863,2.8629,2.8629,0,2.8293,2.834,2.8345,2.8377,2.8428,2.8426,2.8476,2.8485,2.8503,2.8535,2.8522,2.8552,2.855,2.8579,2.8579,2.8625,2.8633,2.8635,2.8634,2.8636,2.8635,2.8646,2.864,2.8632,2.8632,2.8631,2.863,0,2.8375,2.8381,2.8437,2.8458,2.8464,2.85,2.8517,2.8546,2.8551,2.8592,2.8602,2.8609,2.8643,2.8645,2.8684,2.8683,2.874,2.8734,2.8733,2.8731,2.8767,2.8763,2.8887,2.8902,2.8797,2.8798,2.8799,0,2.8431,2.8467,2.8492,2.8513,2.8526,2.8561,2.8581,2.858,2.8602,2.8629,2.8654,2.8688,2.8714,2.877,2.8777,2.8807,2.8801,2.8842,2.8805,2.8805,2.88,2.8797,2.88,2.8849,2.885,2.8851,2.8852,0,2.8529,2.853,2.8561,2.8593,2.8618,2.8643,2.8666,2.8684,2.8684,2.8709,2.8745,2.8765,2.8805,2.8838,2.8867,2.8877,2.8864,2.8863,2.8873,2.8875,2.8872,2.8873,2.8751,2.886,2.8859,2.8859,2.8858,2.8858,2.8599,2.8629,2.8651,2.8686,2.8703,2.8724,2.8753,2.8761,2.8791,2.8825,2.8821,2.886,2.8879,2.8916,2.8929,2.8958,2.8944,2.8958,2.8962,2.8965,2.8968,2.8868,2.8963,2.8963,2.8963,2.8963,2.8963,0,2.8695,2.8709,2.8741,2.8773,2.88,2.8787,2.8811,2.8833,2.8868,2.8888,2.8914,2.8954,2.8985,2.8995,2.9025,2.9046,2.9041,2.9054,2.9052,2.9054,2.898,2.8968,2.9058,2.9058,2.9058,2.9058,2.9058,2.9058,2.8749,2.8799,2.8802,2.8859,2.8871,2.891,2.8925,2.8944,2.8959,2.9005,2.9031,2.9038,2.9053,2.9083,2.9111,2.9112,2.9123,2.9139,2.9138,2.9069,2.9059,2.905,2.9039,2.9142,2.9142,2.9209,2.921,2.921]}]]